Starlink 32398

operational
NORAD ID: 61624 Int'l Des: 2024-191 Owner: SPXS Country: US Constellation: starlink
LEOCIRCULAR

About Starlink 32398

Description loading...

Live Position

Loading 3D Globe...

Upcoming Passes

Altitude History

Altitude vs Time

uPlot chart will show altitude changes over time

Two-Line Element Set

1 61624U 24191D 25306.30093525 .00000152 00000-0 15042-4 0 9993
2 61624 43.0039 153.9564 0000884 266.5432 93.5319 15.27570076 58059
Epoch: Nov 2, 2025 • Age: 16 hours

Current Status

Altitude 484.3 km
Velocity 7.63 km/s
Sub-Earth Point 30.94°N, 160.57°E
Launch Date Oct 23, 2024
Age 1 years
Type internet

Technical Details

Classification Payload
Mass 730.00 kg
Dry Mass 700.00 kg
Total Mass 730.00 kg
Length 0.30 m
Diameter 4.10 m
Span 29.00 m
Shape Box + pan
Manufacturer SPXS
Bus Type Starlink V2M
Phase Status In Orbit
Owner/State SPXS/US

Large Constellations

Loading constellations...